| time (UTC) | temp F | wind direction | speed MPH | gust MPH | rain 1hr in | rain 24hr in | rain mn in | humidity % | barometer mb |
| 20260906224554 | 86 | 185 | 3.0 | 14.0 | 0.00 | 0.00 | 0.00 | 21 | 1024.7 |
| 20260906223554 | 86 | 292 | 5.0 | 14.0 | 0.00 | 0.00 | 0.00 | 20 | 1024.7 |
| 20260906222554 | 87 | 334 | 2.0 | 14.0 | 0.00 | 0.00 | 0.00 | 20 | 1025.1 |
| 20260906221554 | 87 | 185 | 1.0 | 14.0 | 0.00 | 0.00 | 0.00 | 21 | 1025.1 |
| 20260906220554 | 88 | 300 | 3.0 | 14.0 | 0.00 | 0.00 | 0.00 | 21 | 1025.1 |
| 20260906215554 | 87 | 201 | 1.0 | 14.0 | 0.00 | 0.00 | 0.00 | 22 | 1025.1 |
| 20260906214524 | 86 | 293 | 5.0 | 14.0 | 0.00 | 0.00 | 0.00 | 22 | 1025.4 |
| 20260906213524 | 87 | 271 | 6.0 | 14.0 | 0.00 | 0.00 | 0.00 | 21 | 1025.4 |
| 20260906212454 | 88 | 294 | 8.0 | 12.0 | 0.00 | 0.00 | 0.00 | 20 | 1025.7 |
| 20260906211454 | 88 | 147 | 2.0 | 12.0 | 0.00 | 0.00 | 0.00 | 21 | 1025.7 |
| 20260906210424 | 86 | 130 | 0.0 | 12.0 | 0.00 | 0.00 | 0.00 | 22 | 1025.7 |
| 20260906205354 | 86 | 288 | 6.0 | 12.0 | 0.00 | 0.00 | 0.00 | 21 | 1025.7 |
| 20260906204354 | 89 | 290 | 5.0 | 12.0 | 0.00 | 0.00 | 0.00 | 20 | 1026.1 |
| 20260906203354 | 88 | 175 | 3.0 | 10.0 | 0.00 | 0.00 | 0.00 | 21 | 1026.1 |
| 20260906202354 | 87 | 243 | 1.0 | 10.0 | 0.00 | 0.00 | 0.00 | 21 | 1026.4 |
| 20260906201354 | 86 | 203 | 2.0 | 10.0 | 0.00 | 0.00 | 0.00 | 22 | 1026.4 |
| 20260906200354 | 86 | 277 | 3.0 | 10.0 | 0.00 | 0.00 | 0.00 | 22 | 1026.4 |
| 20260906195324 | 87 | 257 | 1.0 | 10.0 | 0.00 | 0.00 | 0.00 | 21 | 1026.4 |
| 20260906194254 | 88 | 159 | 1.0 | 10.0 | 0.00 | 0.00 | 0.00 | 21 | 1027.1 |
| 20260906193224 | 87 | 186 | 1.0 | 10.0 | 0.00 | 0.00 | 0.00 | 21 | 1027.1 |
| 20260906192224 | 87 | 102 | 1.0 | 10.0 | 0.00 | 0.00 | 0.00 | 22 | 1027.1 |
| 20260906191224 | 85 | 231 | 3.0 | 10.0 | 0.00 | 0.00 | 0.00 | 22 | 1027.1 |
| 20260906190224 | 84 | 201 | 1.0 | 10.0 | 0.00 | 0.00 | 0.00 | 23 | 1027.1 |
| 20260906185224 | 82 | 142 | 2.0 | 8.0 | 0.00 | 0.00 | 0.00 | 24 | 1027.4 |
| 20260906184224 | 81 | 185 | 1.0 | 8.0 | 0.00 | 0.00 | 0.00 | 26 | 1027.5 |
| 20260906183224 | 80 | 105 | 2.0 | 8.0 | 0.00 | 0.00 | 0.00 | 25 | 1027.8 |
| 20260906182223 | 81 | 256 | 1.0 | 8.0 | 0.00 | 0.00 | 0.00 | 25 | 1028.1 |
| 20260906181223 | 80 | 128 | 2.0 | 8.0 | 0.00 | 0.00 | 0.00 | 25 | 1028.1 |
| 20260906180224 | 80 | 261 | 0.0 | 8.0 | 0.00 | 0.00 | 0.00 | 25 | 1028.1 |
| 20260906175223 | 80 | 294 | 2.0 | 5.0 | 0.00 | 0.00 | 0.00 | 25 | 1028.1 |
| 20260906174223 | 78 | 198 | 1.0 | 4.0 | 0.00 | 0.00 | 0.00 | 26 | 1028.4 |
| 20260906173223 | 77 | 287 | 2.0 | 4.0 | 0.00 | 0.00 | 0.00 | 24 | 1028.4 |
| 20260906172223 | 76 | 200 | 1.0 | 4.0 | 0.00 | 0.00 | 0.00 | 26 | 1028.4 |
| 20260906171223 | 75 | 184 | 0.0 | 4.0 | 0.00 | 0.00 | 0.00 | 27 | 1028.5 |
| 20260906170223 | 74 | 180 | 1.0 | 4.0 | 0.00 | 0.00 | 0.00 | 30 | 1028.8 |
| 20260906165223 | 72 | 167 | 1.0 | 4.0 | 0.00 | 0.00 | 0.00 | 31 | 1028.7 |
| 20260906164223 | 70 | 65 | 2.0 | 4.0 | 0.00 | 0.00 | 0.00 | 33 | 1028.4 |
| 20260906163223 | 69 | 213 | 1.0 | 4.0 | 0.00 | 0.00 | 0.00 | 36 | 1028.5 |
| 20260906162223 | 68 | 254 | 0.0 | 4.0 | 0.00 | 0.00 | 0.00 | 37 | 1028.8 |
| 20260906161153 | 66 | 177 | 1.0 | 4.0 | 0.00 | 0.00 | 0.00 | 38 | 1028.8 |
| 20260906160153 | 65 | 26 | 0.0 | 4.0 | 0.00 | 0.00 | 0.00 | 41 | 1028.8 |
| 20260906155153 | 63 | 158 | 0.0 | 4.0 | 0.00 | 0.00 | 0.00 | 44 | 1029.1 |
| 20260906154153 | 62 | 134 | 2.0 | 4.0 | 0.00 | 0.00 | 0.00 | 46 | 1029.1 |
| 20260906153153 | 61 | 167 | 1.0 | 3.0 | 0.00 | 0.00 | 0.00 | 48 | 1029.1 |
| 20260906152153 | 59 | 95 | 1.0 | 3.0 | 0.00 | 0.00 | 0.00 | 52 | 1029.1 |
| 20260906151153 | 57 | 60 | 1.0 | 3.0 | 0.00 | 0.00 | 0.00 | 55 | 1029.1 |
| 20260906150153 | 55 | 67 | 1.0 | 3.0 | 0.00 | 0.00 | 0.00 | 58 | 1029.1 |
| 20260906145123 | 53 | 57 | 0.0 | 2.0 | 0.00 | 0.00 | 0.00 | 62 | 1028.8 |
| 20260906144123 | 51 | 65 | 0.0 | 2.0 | 0.00 | 0.00 | 0.00 | 63 | 1028.8 |
| 20260906143123 | 49 | 74 | 0.0 | 2.0 | 0.00 | 0.00 | 0.00 | 68 | 1028.8 |
| 20260906142122 | 48 | 318 | 0.0 | 2.0 | 0.00 | 0.00 | 0.00 | 69 | 1028.8 |
| 20260906141122 | 47 | 294 | 0.0 | 2.0 | 0.00 | 0.00 | 0.00 | 72 | 1028.4 |
| 20260906140122 | 46 | 292 | 0.0 | 2.0 | 0.00 | 0.00 | 0.00 | 73 | 1028.4 |
| 20260906135122 | 45 | 292 | 0.0 | 2.0 | 0.00 | 0.00 | 0.00 | 73 | 1028.1 |
| 20260906134052 | 45 | 292 | 0.0 | 2.0 | 0.00 | 0.00 | 0.00 | 73 | 1028.1 |
| 20260906133052 | 45 | 292 | 0.0 | 2.0 | 0.00 | 0.00 | 0.00 | 72 | 1028.1 |
| 20260906132052 | 45 | 292 | 0.0 | 2.0 | 0.00 | 0.00 | 0.00 | 72 | 1028.1 |
| 20260906131052 | 45 | 292 | 0.0 | 2.0 | 0.00 | 0.00 | 0.00 | 72 | 1027.8 |
| 20260906130052 | 45 | 292 | 0.0 | 2.0 | 0.00 | 0.00 | 0.00 | 72 | 1027.8 |
| 20260906125052 | 45 | 292 | 0.0 | 2.0 | 0.00 | 0.00 | 0.00 | 71 | 1027.8 |
| 20260906124052 | 45 | 292 | 0.0 | 2.0 | 0.00 | 0.00 | 0.00 | 70 | 1027.8 |
| 20260906123052 | 46 | 292 | 0.0 | 2.0 | 0.00 | 0.00 | 0.00 | 69 | 1027.8 |
| 20260906122022 | 46 | 292 | 0.0 | 2.0 | 0.00 | 0.00 | 0.00 | 69 | 1027.8 |
| 20260906121022 | 46 | 292 | 0.0 | 2.0 | 0.00 | 0.00 | 0.00 | 67 | 1027.8 |
| 20260906120022 | 47 | 292 | 0.0 | 2.0 | 0.00 | 0.00 | 0.00 | 67 | 1027.8 |
| 20260906115022 | 47 | 292 | 0.0 | 2.0 | 0.00 | 0.00 | 0.00 | 67 | 1027.8 |
| 20260906114022 | 47 | 292 | 0.0 | 2.0 | 0.00 | 0.00 | 0.00 | 66 | 1027.4 |
| 20260906113022 | 47 | 292 | 0.0 | 2.0 | 0.00 | 0.00 | 0.00 | 66 | 1027.4 |
| 20260906112022 | 47 | 292 | 0.0 | 2.0 | 0.00 | 0.00 | 0.00 | 66 | 1027.4 |
| 20260906111022 | 48 | 314 | 0.0 | 2.0 | 0.00 | 0.00 | 0.00 | 65 | 1027.4 |
| 20260906110022 | 48 | 321 | 0.0 | 2.0 | 0.00 | 0.00 | 0.00 | 64 | 1027.4 |
| 20260906105022 | 49 | 321 | 0.0 | 2.0 | 0.00 | 0.00 | 0.00 | 63 | 1027.8 |
| 20260906104021 | 49 | 321 | 0.0 | 2.0 | 0.00 | 0.00 | 0.00 | 63 | 1027.8 |
| 20260906103021 | 49 | 321 | 0.0 | 2.0 | 0.00 | 0.00 | 0.00 | 63 | 1027.8 |
| 20260906102021 | 49 | 321 | 0.0 | 2.0 | 0.00 | 0.00 | 0.00 | 62 | 1027.4 |
| 20260906101021 | 50 | 321 | 0.0 | 2.0 | 0.00 | 0.00 | 0.00 | 61 | 1027.4 |
| 20260906100021 | 50 | 355 | 0.0 | 2.0 | 0.00 | 0.00 | 0.00 | 61 | 1027.4 |
| 20260906095021 | 50 | 355 | 0.0 | 2.0 | 0.00 | 0.00 | 0.00 | 61 | 1027.8 |
| 20260906094021 | 51 | 355 | 0.0 | 2.0 | 0.00 | 0.00 | 0.00 | 60 | 1027.8 |
| 20260906093021 | 51 | 355 | 0.0 | 2.0 | 0.00 | 0.00 | 0.00 | 59 | 1027.8 |
| 20260906092021 | 51 | 355 | 0.0 | 2.0 | 0.00 | 0.00 | 0.00 | 59 | 1027.4 |
| 20260906091021 | 51 | 355 | 0.0 | 2.0 | 0.00 | 0.00 | 0.00 | 58 | 1027.4 |
| 20260906090021 | 52 | 355 | 0.0 | 2.0 | 0.00 | 0.00 | 0.00 | 57 | 1027.8 |
| 20260906085021 | 52 | 355 | 0.0 | 2.0 | 0.00 | 0.00 | 0.00 | 57 | 1027.8 |
| 20260906084021 | 52 | 355 | 0.0 | 2.0 | 0.00 | 0.00 | 0.00 | 56 | 1027.8 |
| 20260906083021 | 53 | 355 | 0.0 | 2.0 | 0.00 | 0.00 | 0.00 | 55 | 1027.8 |
| 20260906082021 | 53 | 355 | 0.0 | 2.0 | 0.00 | 0.00 | 0.00 | 54 | 1027.8 |
| 20260906081021 | 54 | 355 | 0.0 | 2.0 | 0.00 | 0.00 | 0.00 | 54 | 1027.8 |
| 20260906080021 | 54 | 355 | 0.0 | 2.0 | 0.00 | 0.00 | 0.00 | 53 | 1027.8 |
| 20260906075020 | 55 | 355 | 0.0 | 2.0 | 0.00 | 0.00 | 0.00 | 53 | 1027.8 |
| 20260906074020 | 56 | 355 | 0.0 | 2.0 | 0.00 | 0.00 | 0.00 | 52 | 1027.8 |
| 20260906073020 | 56 | 355 | 0.0 | 2.0 | 0.00 | 0.00 | 0.00 | 52 | 1028.1 |
| 20260906072020 | 56 | 355 | 0.0 | 2.0 | 0.00 | 0.00 | 0.00 | 53 | 1028.1 |
| 20260906071020 | 55 | 277 | 0.0 | 2.0 | 0.00 | 0.00 | 0.00 | 53 | 1027.8 |
| 20260906070020 | 55 | 276 | 0.0 | 2.0 | 0.00 | 0.00 | 0.00 | 54 | 1027.8 |
| 20260906065020 | 55 | 275 | 0.0 | 2.0 | 0.00 | 0.00 | 0.00 | 53 | 1027.8 |
| 20260906064020 | 55 | 275 | 0.0 | 2.0 | 0.00 | 0.00 | 0.00 | 52 | 1027.8 |
| 20260906063020 | 55 | 275 | 0.0 | 2.0 | 0.00 | 0.00 | 0.00 | 52 | 1027.8 |
| 20260906062020 | 56 | 275 | 0.0 | 2.0 | 0.00 | 0.00 | 0.00 | 51 | 1027.8 |
| 20260906061020 | 56 | 275 | 0.0 | 2.0 | 0.00 | 0.00 | 0.00 | 51 | 1027.8 |
| 20260906060020 | 56 | 275 | 0.0 | 0.0 | 0.00 | 0.00 | 0.00 | 50 | 1027.8 |
| 20260906055020 | 57 | 275 | 0.0 | 14.0 | 0.00 | 0.00 | 0.00 | 50 | 1027.8 |
| 20260906054020 | 57 | 275 | 0.0 | 14.0 | 0.00 | 0.00 | 0.00 | 48 | 1027.8 |
| 20260906053020 | 58 | 275 | 1.0 | 14.0 | 0.00 | 0.00 | 0.00 | 48 | 1027.4 |
| 20260906052020 | 58 | 275 | 0.0 | 14.0 | 0.00 | 0.00 | 0.00 | 47 | 1027.4 |
| 20260906051020 | 59 | 275 | 0.0 | 14.0 | 0.00 | 0.00 | 0.00 | 46 | 1027.8 |
| 20260906050020 | 59 | 275 | 0.0 | 14.0 | 0.00 | 0.00 | 0.00 | 45 | 1027.8 |
| 20260906045019 | 60 | 275 | 0.0 | 14.0 | 0.00 | 0.00 | 0.00 | 44 | 1027.8 |
| 20260906044019 | 61 | 275 | 0.0 | 14.0 | 0.00 | 0.00 | 0.00 | 44 | 1027.8 |
| 20260906043020 | 61 | 275 | 0.0 | 14.0 | 0.00 | 0.00 | 0.00 | 43 | 1027.8 |
| 20260906042019 | 61 | 275 | 0.0 | 14.0 | 0.00 | 0.00 | 0.00 | 43 | 1027.8 |
| 20260906040949 | 62 | 275 | 0.0 | 14.0 | 0.00 | 0.00 | 0.00 | 43 | 1027.8 |
| 20260906035949 | 62 | 275 | 0.0 | 14.0 | 0.00 | 0.00 | 0.00 | 41 | 1027.8 |
| 20260906034949 | 63 | 275 | 0.0 | 14.0 | 0.00 | 0.00 | 0.00 | 41 | 1027.4 |
| 20260906033949 | 64 | 242 | 0.0 | 14.0 | 0.00 | 0.00 | 0.00 | 40 | 1027.4 |
| 20260906032949 | 64 | 242 | 0.0 | 14.0 | 0.00 | 0.00 | 0.00 | 39 | 1027.1 |
| 20260906031949 | 65 | 242 | 0.0 | 14.0 | 0.00 | 0.00 | 0.00 | 37 | 1027.1 |
| 20260906030949 | 66 | 246 | 0.0 | 14.0 | 0.00 | 0.00 | 0.00 | 37 | 1026.8 |
| 20260906025949 | 68 | 241 | 0.0 | 14.0 | 0.00 | 0.00 | 0.00 | 35 | 1026.8 |
| 20260906024949 | 69 | 241 | 1.0 | 14.0 | 0.00 | 0.00 | 0.00 | 34 | 1026.4 |
| 20260906023949 | 70 | 244 | 1.0 | 14.0 | 0.00 | 0.00 | 0.00 | 33 | 1026.4 |
| 20260906022949 | 71 | 296 | 0.0 | 14.0 | 0.00 | 0.00 | 0.00 | 32 | 1026.1 |
| 20260906021949 | 73 | 238 | 0.0 | 14.0 | 0.00 | 0.00 | 0.00 | 31 | 1026.1 |
| 20260906020949 | 73 | 320 | 0.0 | 14.0 | 0.00 | 0.00 | 0.00 | 31 | 1026.1 |
| 20260906015949 | 74 | 270 | 0.0 | 14.0 | 0.00 | 0.00 | 0.00 | 31 | 1026.1 |
| 20260906014949 | 75 | 265 | 0.0 | 14.0 | 0.00 | 0.00 | 0.00 | 30 | 1026.1 |
| 20260906013919 | 76 | 250 | 1.0 | 14.0 | 0.00 | 0.00 | 0.00 | 30 | 1026.1 |
| 20260906012849 | 76 | 205 | 1.0 | 14.0 | 0.00 | 0.00 | 0.00 | 30 | 1026.1 |
| 20260906011819 | 77 | 217 | 1.0 | 14.0 | 0.00 | 0.00 | 0.00 | 29 | 1026.1 |
| 20260906010819 | 78 | 326 | 2.0 | 14.0 | 0.00 | 0.00 | 0.00 | 28 | 1025.7 |
| 20260906005819 | 79 | 287 | 2.0 | 14.0 | 0.00 | 0.00 | 0.00 | 27 | 1025.7 |
| 20260906004819 | 80 | 249 | 3.0 | 14.0 | 0.00 | 0.00 | 0.00 | 27 | 1025.7 |
| 20260906003819 | 81 | 279 | 2.0 | 14.0 | 0.00 | 0.00 | 0.00 | 25 | 1025.7 |
| 20260906002819 | 83 | 280 | 2.0 | 14.0 | 0.00 | 0.00 | 0.00 | 24 | 1025.7 |
| 20260906001819 | 84 | 185 | 1.0 | 14.0 | 0.00 | 0.00 | 0.00 | 22 | 1025.7 |
| 20260906000749 | 85 | 308 | 1.0 | 14.0 | 0.00 | 0.00 | 0.00 | 22 | 1025.7 |
| 20260905235749 | 85 | 189 | 1.0 | 14.0 | 0.00 | 0.00 | 0.00 | 22 | 1025.7 |
| 20260905234749 | 84 | 267 | 1.0 | 14.0 | 0.00 | 0.00 | 0.00 | 23 | 1025.7 |
| 20260905233749 | 85 | 289 | 2.0 | 14.0 | 0.00 | 0.00 | 0.00 | 21 | 1025.7 |
| 20260905232749 | 84 | 165 | 2.0 | 14.0 | 0.00 | 0.00 | 0.00 | 23 | 1025.7 |
| 20260905231749 | 84 | 293 | 5.0 | 14.0 | 0.00 | 0.00 | 0.00 | 22 | 1025.7 |
| 20260905230749 | 84 | 166 | 5.0 | 14.0 | 0.00 | 0.00 | 0.00 | 24 | 1025.7 |
| 20260905225749 | 83 | 19 | 1.0 | 14.0 | 0.00 | 0.00 | 0.00 | 22 | 1025.7 |